Weather History for Ocean City, MD

Change the Weather History Date:

Sunday, January 5, 2014

  Actual Average (KSBY) Record (KSBY)
Temperature  
Mean Temperature 44 °F 36 °F  
Max Temperature 53 °F 44 °F 71 °F (1950)
Min Temperature 35 °F 27 °F 9 °F (1920)
Degree Days  
Heating Degree Days 21 29  
Month to date heating degree days 145  
Since 1 July heating degree days 1769  
Cooling Degree Days 0 0  
Month to date cooling degree days 0  
Year to date cooling degree days 0  
Moisture  
Dew Point 43 °F    
Average Humidity 86    
Maximum Humidity 97    
Minimum Humidity 71    
Precipitation  
Precipitation 0.09 in 0.12 in 1.30 in (1993)
Month to date precipitation 0.54  
Year to date precipitation 0.54  
Snow  
Snow 0.00 in 0.10 in 1.00 in (1980)
Month to date snowfall 0.3  
Since 1 July snowfall 2.1  
Snow Depth -    
Sea Level Pressure  
Sea Level Pressure 30.07 in    
Wind  
Wind Speed 4 mph (South)    
Max Wind Speed 14 mph    
Max Gust Speed 22 mph    
Visibility 8 miles    
Events Rain    
T = Trace of Precipitation, MM = Missing Value Source: NWS Daily Summary

Daily Weather History Graph

Daily Weather History Graph

Search for Another Location

Airport:

Trip Planner

Search our weather history database for the weather conditions in past years. The results will help you decide how hot, cold, wet, or windy it might be!

Date:

Astronomy

Jan. 05, 2014 Rise Set
Actual Time 7:17 AM EST 4:54 PM EST
Civil Twilight 6:48 AM EST 5:23 PM EST
Nautical Twilight 6:15 AM EST 5:56 PM EST
Astronomical Twilight 5:43 AM EST 6:28 PM EST
Moon 10:02 AM EST (1/5) 10:14 PM EST (1/5)
Length of Visible Light 10h 35m
Length of Day
9h 36m
Waxing Crescent, 24% of the Moon is Illuminated
Jan 5
Waxing Crescent
Jan 7
First Quarter
Jan 15
Full
Jan 24
Last Quarter
Jan 30
New

Hourly Weather History & Observations

Time (EST) Temp. Windchill Dew Point Humidity Pressure Visibility Wind Dir Wind Speed Gust Speed Precip Events Conditions
12:53 AM 37.9 °F 34.4 °F 32.0 °F 79% 30.31 in 10.0 mi SW 4.6 mph - N/A   Mostly Cloudy
1:53 AM 39.0 °F - 30.9 °F 73% 30.32 in 10.0 mi North - - N/A   Overcast
2:53 AM 37.0 °F - 30.9 °F 79% 30.32 in 10.0 mi North - - N/A   Overcast
3:53 AM 35.1 °F - 30.9 °F 85% 30.29 in 10.0 mi Calm Calm - N/A   Overcast
4:53 AM 36.0 °F - 32.0 °F 86% 30.29 in 10.0 mi Calm Calm - N/A   Overcast
5:53 AM 35.1 °F 31.0 °F 30.9 °F 85% 30.27 in 10.0 mi SE 4.6 mph - N/A   Overcast
6:53 AM 37.0 °F - 32.0 °F 82% 30.28 in 10.0 mi Calm Calm - N/A   Overcast
7:53 AM 37.9 °F - 33.1 °F 83% 30.30 in 10.0 mi Calm Calm - N/A   Overcast
8:53 AM 41.0 °F 38.0 °F 34.0 °F 76% 30.28 in 10.0 mi East 4.6 mph - N/A   Overcast
9:53 AM 43.0 °F 41.3 °F 36.0 °F 76% 30.26 in 10.0 mi North 3.5 mph - N/A   Overcast
10:53 AM 48.0 °F - 39.0 °F 71% 30.21 in 10.0 mi ENE 4.6 mph - N/A   Mostly Cloudy
11:53 AM 52.0 °F - 43.0 °F 71% 30.17 in 10.0 mi ENE 4.6 mph - N/A   Clear
12:53 PM 51.1 °F - 42.1 °F 71% 30.14 in 10.0 mi East 4.6 mph - N/A   Mostly Cloudy
1:53 PM 51.1 °F - 44.1 °F 77% 30.12 in 10.0 mi East 3.5 mph - N/A   Overcast
2:53 PM 51.1 °F - 45.0 °F 80% 30.09 in 10.0 mi SE 3.5 mph - N/A   Scattered Clouds
3:53 PM 51.1 °F - 46.9 °F 86% 30.07 in 10.0 mi Variable 3.5 mph - N/A   Overcast
4:53 PM 52.0 °F - 48.9 °F 89% 30.04 in 9.0 mi Variable 3.5 mph - N/A   Mostly Cloudy
5:53 PM 50.0 °F - 48.0 °F 93% 30.02 in 9.0 mi North - - N/A   Overcast
6:04 PM 50.0 °F - 48.0 °F 93% 30.02 in 7.0 mi Variable 3.5 mph - N/A   Overcast
6:53 PM 51.1 °F - 48.9 °F 92% 29.99 in 10.0 mi SE 8.1 mph - N/A   Overcast
7:53 PM 51.1 °F - 48.9 °F 92% 29.95 in 9.0 mi Variable 5.8 mph - N/A   Overcast
8:53 PM 51.1 °F - 50.0 °F 96% 29.91 in 9.0 mi Variable 4.6 mph - N/A   Overcast
9:11 PM 51.1 °F - 48.9 °F 92% 29.90 in 9.0 mi Variable 3.5 mph - N/A   Overcast
9:53 PM 51.1 °F - 48.0 °F 89% 29.88 in 7.0 mi SW 5.8 mph - N/A   Overcast
10:02 PM 50.0 °F - 48.0 °F 93% 29.88 in 6.0 mi SW 6.9 mph - N/A   Overcast
10:27 PM 50.0 °F - 48.0 °F 93% 29.86 in 5.0 mi SW 6.9 mph - N/A   Overcast
10:35 PM 50.0 °F - 48.0 °F 93% 29.85 in 4.0 mi SW 4.6 mph - N/A   Overcast
10:53 PM 50.0 °F - 48.0 °F 93% 29.83 in 2.5 mi SW 8.1 mph - N/A   Overcast
11:11 PM 50.0 °F - 48.9 °F 96% 29.82 in 1.5 mi SW 8.1 mph - 0.01 in Rain Rain
11:34 PM 53.1 °F - 52.0 °F 96% 29.81 in 2.0 mi SW 12.7 mph 18.4 mph 0.09 in Rain Light Rain
11:42 PM 52.0 °F - 51.1 °F 97% 29.81 in 1.0 mi SW 13.8 mph - 0.09 in   Mist
11:53 PM 53.1 °F - 52.0 °F 96% 29.80 in 1.5 mi SSW 10.4 mph 21.9 mph 0.09 in   Overcast